M I D A S
Marine Information and Data Acquisition System
Tripno 484 of the Zeeleeuw from 2003-05-05 06:53:56 to 2003-05-05 15:13:46
Back to CruiseResearch ActivitiesStationsMapUnderway DataData graphs

EquipmentUnitsComments
TimeDGPSUTC
LatitudeDGPSDM.mWGS84
LongitudeDGPSDM.mWGS84
SpeedMeteo Stationm/sRelative wind speed
DirectionMeteo StationdegRelative wind direction
TemperatureMeteo Stationdeg CelciusAir temperature
PressureMeteo StationPaAtmospheric pressure
HumidityMeteo Station%Relative humidity
Missing or incorrect values are displayed as -999
Metereological data collected by the RV Zeeleeuw from 2003-05-05 06:53:56 to 2003-05-05 15:13:46
Time Latitude Longitude Speed Direction Temperature Pressure Humidity
2003-05-05 06:54 51°13.6 2°56.1 4 307 13.4 101090 87
2003-05-05 06:56 51°13.61 2°56.05 3.4 227 13.3 101100 86
2003-05-05 06:57 51°13.64 2°55.94 1.3 242 13.3 101100 87
2003-05-05 06:58 51°13.67 2°55.82 2 220 13.4 101100 87
2003-05-05 06:59 51°13.68 2°55.76 3.5 226 13.4 101100 87
2003-05-05 06:59 51°13.7 2°55.76 3.2 178 13.4 101110 87
2003-05-05 07:00 51°13.74 2°55.73 2.1 77 13.4 101110 87
2003-05-05 07:01 51°13.81 2°55.65 0.6 61 13.4 101120 87
2003-05-05 07:02 51°13.9 2°55.57 1.4 143 13.4 101120 87
2003-05-05 07:03 51°14.01 2°55.49 1.3   13.5 101120 87
2003-05-05 07:04 51°14.14 2°55.4 1.8 17 13.5 101120 87
2003-05-05 07:06 51°14.27 2°55.25 4.9 19 13.5 101120 87
2003-05-05 07:06 51°14.37 2°55.06 6.5 31 13.5 101120 87
2003-05-05 07:07 51°14.52 2°54.87 4.2 46 13.5 101130 86
2003-05-05 07:08 51°14.7 2°54.71 4.3 54 13.5 101130 86
2003-05-05 07:09 51°14.87 2°54.55 3.9 50 13.5 101130 86
2003-05-05 07:10 51°15.05 2°54.4 3.8 48 13.5 101130 86
2003-05-05 07:11 51°15.23 2°54.24 3.8 51 13.5 101130 86
2003-05-05 07:12 51°15.42 2°54.08 5.1 57 13.5 101130 85
2003-05-05 07:13 51°15.61 2°53.91 4.8 54 13.4 101130 85
2003-05-05 07:14 51°15.79 2°53.75 4.7 58 13.4 101130 85
2003-05-05 07:15 51°15.98 2°53.58 5 54 13.4 101140 85
2003-05-05 07:16 51°16.18 2°53.41 5.3 47 13.3 101140 85
2003-05-05 07:17 51°16.37 2°53.24 4.8 46 13.3 101140 85
2003-05-05 07:18 51°16.57 2°53.07 4.2 58 13.3 101140 85
2003-05-05 07:19 51°16.77 2°52.9 5.1 35 13.3 101140 85
2003-05-05 07:20 51°16.96 2°52.74 5.1 321 13.2 101140 85
2003-05-05 07:21 51°17.16 2°52.57 4.9 53 13.2 101150 85
2003-05-05 07:22 51°17.36 2°52.4 4.4 52 13.1 101150 85
2003-05-05 07:23 51°17.58 2°52.32 3 50 13.1 101160 85
2003-05-05 07:24 51°17.79 2°52.28 1.1 36 13.1 101160 86
2003-05-05 07:25 51°18 2°52.33 1.9 304 13.1 101170 86
2003-05-05 07:26 51°18.18 2°52.51 3.2 284 13 101160 86
2003-05-05 07:27 51°18.35 2°52.71 4.7 276 12.9 101160 86
2003-05-05 07:28 51°18.48 2°52.97 5.4 288 12.8 101160 86
2003-05-05 07:29 51°18.58 2°53.25 4.9 289 12.8 101160 87
2003-05-05 07:30 51°18.69 2°53.54 4.9 286 12.8 101160 87
2003-05-05 07:31 51°18.79 2°53.83 5.1 286 12.7 101160 87
2003-05-05 07:32 51°18.89 2°54.12 5.9 289 12.7 101160 87
2003-05-05 07:33 51°18.99 2°54.42 5.8 281 12.7 101160 88
2003-05-05 07:34 51°19.09 2°54.72 4.2 290 12.7 101160 88
2003-05-05 07:35 51°19.2 2°55.03 5.2 294 12.8 101160 88
2003-05-05 07:36 51°19.3 2°55.33 5.5 291 12.8 101150 88
2003-05-05 07:37 51°19.4 2°55.62 6 296 12.8 101150 88
2003-05-05 07:38 51°19.5 2°55.93 5.6 298 12.8 101150 88
2003-05-05 07:39 51°19.58 2°56.24 6.8 306 12.8 101140 87
2003-05-05 07:40 51°19.65 2°56.56 6.8 299 12.8 101150 87
2003-05-05 07:41 51°19.72 2°56.87 5.8 296 12.8 101150 87
2003-05-05 07:42 51°19.8 2°57.18 5.9 302 12.9 101140 87
2003-05-05 07:43 51°19.87 2°57.49 6.7 306 12.9 101150 87
2003-05-05 07:44 51°19.95 2°57.8 6 297 12.9 101150 87
2003-05-05 07:45 51°20.02 2°58.11 6.6 298 12.8 101150 87
2003-05-05 07:46 51°20.1 2°58.42 6.1 302 12.9 101140 87
2003-05-05 07:47 51°20.17 2°58.72 6.3 302 12.9 101150 87
2003-05-05 07:48 51°20.25 2°59.03 6.4 298 12.9 101150 87
2003-05-05 07:49 51°20.32 2°59.33 6.3 300 12.9 101140 87
2003-05-05 07:50 51°20.4 2°59.63 6.1 301 12.9 101150 87
2003-05-05 07:51 51°20.47 2°59.93 6.4 299 12.9 101150 87
2003-05-05 07:52 51°20.54 3°0.23 6.3 299 12.9 101160 87
2003-05-05 07:53 51°20.62 3°0.54 6.3 302 12.9 101160 87
2003-05-05 07:54 51°20.69 3°0.84 6.5 306 13 101160 87
2003-05-05 07:55 51°20.75 3°1.14 6.3 303 13 101160 87
2003-05-05 07:56 51°20.82 3°1.44 6.1 299 13 101160 87
2003-05-05 07:57 51°20.89 3°1.75 5.6 309 13 101150 87
2003-05-05 07:58 51°20.95 3°2.05 5.7 300 13.1 101150 87
2003-05-05 07:59 51°21.02 3°2.35 6.1 298 13.1 101150 87
2003-05-05 08:00 51°21.09 3°2.65 5.5 304 13.1 101150 87
2003-05-05 08:01 51°21.16 3°2.95 5.7 295 13.1 101140 87
2003-05-05 08:02 51°21.22 3°3.25 5.9 295 13.1 101140 87
2003-05-05 08:03 51°21.29 3°3.54 5.4 301 13.1 101140 87
2003-05-05 08:04 51°21.35 3°3.81 4.8 292 13.1 101140 87
2003-05-05 08:05 51°21.39 3°4.02 4.5 288 13.1 101140 87
2003-05-05 08:06 51°21.44 3°4.22 4.6 273 13.1 101150 87
2003-05-05 08:07 51°21.48 3°4.41 4.7 258 13.1 101150 87
2003-05-05 08:08 51°21.52 3°4.58 4.6 265 13.1 101160 87
2003-05-05 08:09 51°21.56 3°4.74 4.4 269 13.1 101160 87
2003-05-05 08:10 51°21.6 3°4.94 4.7 280 13.1 101150 87
2003-05-05 08:11 51°21.67 3°5.16 3.6 281 13.1 101150 88
2003-05-05 08:12 51°21.74 3°5.38 4 290 13.1 101150 87
2003-05-05 08:13 51°21.82 3°5.61 3.9 292 13.1 101150 87
2003-05-05 08:14 51°21.89 3°5.85 4.8 298 13.1 101150 87
2003-05-05 08:15 51°21.95 3°6.12 4.5 297 13.1 101150 87
2003-05-05 08:16 51°22.01 3°6.4 5 293 13.1 101160 87
2003-05-05 08:17 51°22.07 3°6.68 5 295 13.1 101150 87
2003-05-05 08:18 51°22.13 3°6.96 4.8 298 13.1 101150 87
2003-05-05 08:19 51°22.19 3°7.25 4.8 302 13.2 101150 87
2003-05-05 08:20 51°22.25 3°7.54 5.2 304 13.1 101150 87
2003-05-05 08:21 51°22.31 3°7.82 4.6 284 13.2 101150 87
2003-05-05 08:22 51°22.37 3°8.1 4.7 293 13.2 101150 87
2003-05-05 08:23 51°22.44 3°8.38 4.9 298 13.2 101160 87
2003-05-05 08:24 51°22.5 3°8.61 4.3 278 13.2 101160 87
2003-05-05 08:25 51°22.54 3°8.78 3.8 255 13.2 101160 87
2003-05-05 08:26 51°22.58 3°8.92 3.4 244 13.2 101170 87
2003-05-05 08:27 51°22.61 3°9.06 4.3 247 13.2 101170 87
2003-05-05 08:28 51°22.64 3°9.19 4.1 248 13.2 101160 87
2003-05-05 08:29 51°22.67 3°9.32 3.9 254 13.2 101170 87
2003-05-05 08:30 51°22.69 3°9.43 3.7 213 13.2 101170 87
2003-05-05 08:31 51°22.7 3°9.45 3.4 185 13.2 101160 87
2003-05-05 08:32 51°22.72 3°9.45 3.3 180 13.2 101160 87
2003-05-05 08:33 51°22.74 3°9.44 3.3 182 13.4 101160 88
2003-05-05 08:34 51°22.76 3°9.44 4.9 192 13.4 101160 87
2003-05-05 08:35 51°22.77 3°9.44 3.7 207 13.4 101160 87
2003-05-05 08:36 51°22.78 3°9.45 3.8 217 13.4 101160 86
2003-05-05 08:37 51°22.78 3°9.46 5.2 235 13.4 101160 86
2003-05-05 08:38 51°22.77 3°9.47 5.3 248 13.4 101160 86
2003-05-05 08:39 51°22.76 3°9.47 5.2 261 13.4 101160 86
2003-05-05 08:40 51°22.74 3°9.46 5.2 264 13.4 101160 86
2003-05-05 08:41 51°22.72 3°9.45 5 262 13.4 101160 86
2003-05-05 08:42 51°22.7 3°9.44 4.6 255 13.4 101160 86
2003-05-05 08:43 51°22.69 3°9.44 4.7 234 13.4 101160 86
2003-05-05 08:44 51°22.69 3°9.45 4 233 13.4 101160 86
2003-05-05 08:45 51°22.68 3°9.46 4.4 235 13.4 101160 86
2003-05-05 08:46 51°22.67 3°9.48 4.3 241 13.4 101170 86
2003-05-05 08:47 51°22.67 3°9.49 3.8 202 13.4 101170 85
2003-05-05 08:48 51°22.67 3°9.49 3.2 184 13.5 101170 85
2003-05-05 08:49 51°22.69 3°9.49 2 164 13.5 101170 86
2003-05-05 08:50 51°22.71 3°9.49 2.1 181 13.7 101170 86
2003-05-05 08:51 51°22.73 3°9.5 2.2 174 13.9 101170 86
2003-05-05 08:52 51°22.75 3°9.5 2.7 181 13.9 101170 85
2003-05-05 08:53 51°22.77 3°9.51 2.5 183 13.9 101170 84
2003-05-05 08:54 51°22.8 3°9.52 2.7 185 13.8 101170 84
2003-05-05 08:55 51°22.82 3°9.53 3.1 194 13.8 101170 83
2003-05-05 08:56 51°22.83 3°9.54 3.7 220 13.7 101170 83
2003-05-05 08:57 51°22.83 3°9.56 3.2 229 13.7 101170 84
2003-05-05 08:58 51°22.82 3°9.57 3.8 243 13.6 101160 84
2003-05-05 08:59 51°22.8 3°9.59 4 254 13.6 101160 84
2003-05-05 09:00 51°22.78 3°9.6 4.1 267 13.6 101170 84
2003-05-05 09:01 51°22.76 3°9.6 3.8 279 13.5 101160 84
2003-05-05 09:02 51°22.73 3°9.6 4.1 294 13.5 101160 84
2003-05-05 09:03 51°22.7 3°9.59 4.7 301 13.5 101160 85
2003-05-05 09:04 51°22.67 3°9.58 4.5 313 13.5 101160 85
2003-05-05 09:05 51°22.62 3°9.55 5.4 349 13.5 101160 85
2003-05-05 09:06 51°22.57 3°9.45 6.2 30 13.5 101160 85
2003-05-05 09:07 51°22.6 3°9.26 6.6 40 13.6 101160 85
2003-05-05 09:08 51°22.68 3°8.99 6.8 34 13.6 101160 85
2003-05-05 09:09 51°22.81 3°8.71 7.7 28 13.6 101150 85
2003-05-05 09:10 51°22.95 3°8.39 7.7 28 13.6 101160 85
2003-05-05 09:11 51°23.1 3°8.09 7.1 25 13.6 101160 85
2003-05-05 09:12 51°23.23 3°7.77 7.7 26 13.6 101160 85
2003-05-05 09:13 51°23.37 3°7.43 7.7 27 13.6 101160 85
2003-05-05 09:14 51°23.5 3°7.09 7.6 27 13.6 101160 85
2003-05-05 09:15 51°23.63 3°6.75 8.5 27 13.5 101160 85
2003-05-05 09:16 51°23.76 3°6.42 7.9 32 13.5 101160 85
2003-05-05 09:17 51°23.93 3°6.13 7.3 27 13.5 101160 85
2003-05-05 09:18 51°24.11 3°5.86 6.9 35 13.5 101160 85
2003-05-05 09:19 51°24.32 3°5.72 4.7 22 13.5 101160 85
2003-05-05 09:20 51°24.54 3°5.66 4 20 13.5 101170 85
2003-05-05 09:21 51°24.76 3°5.66 3.4 360 13.5 101180 85
2003-05-05 09:22 51°24.98 3°5.7 3.6 359 13.4 101180 85
2003-05-05 09:23 51°25.19 3°5.74 3 3 13.4 101180 85
2003-05-05 09:24 51°25.4 3°5.77 3.3 5 13.4 101180 85
2003-05-05 09:25 51°25.61 3°5.81 2.8 1 13.4 101180 85
2003-05-05 09:26 51°25.81 3°5.84 2.6 5 13.4 101180 85
2003-05-05 09:27 51°26.02 3°5.88 3 5 13.3 101180 86
2003-05-05 09:28 51°26.23 3°5.91 2.8 8 13.3 101190 86
2003-05-05 09:29 51°26.43 3°6 2.5 341 13.3 101200 86
2003-05-05 09:30 51°26.61 3°6.16 2.6 328 13.3 101200 86
2003-05-05 09:31 51°26.79 3°6.34 3 314 13.2 101200 86
2003-05-05 09:32 51°26.96 3°6.54 2.9 324 13.2 101200 86
2003-05-05 09:33 51°27.12 3°6.75 3.5 315 13.2 101190 86
2003-05-05 09:34 51°27.27 3°7 4.1 309 13.1 101190 86
2003-05-05 09:35 51°27.41 3°7.26 4.1 312 13.1 101190 86
2003-05-05 09:36 51°27.55 3°7.52 4 301 13.1 101190 86
2003-05-05 09:37 51°27.68 3°7.79 4.2 299 13.1 101190 86
2003-05-05 09:38 51°27.81 3°8.06 4.1 302 13.1 101200 87
2003-05-05 09:39 51°27.93 3°8.33 4.4 300 13.1 101190 87
2003-05-05 09:40 51°28.06 3°8.6 4.3 292 13 101190 87
2003-05-05 09:41 51°28.11 3°8.83 5.1 265 13.1 101200 87
2003-05-05 09:42 51°28.14 3°9 5.8 270 13 101200 87
2003-05-05 09:43 51°28.13 3°9.13 5.2 233 13 101190 87
2003-05-05 09:44 51°28.13 3°9.17 5.4 204 13 101200 87
2003-05-05 09:45 51°28.12 3°9.17 5.5 195 13 101200 87
2003-05-05 09:46 51°28.12 3°9.16 5.6 195 13 101210 87
2003-05-05 09:47 51°28.11 3°9.16 5.2 207 13.1 101200 87
2003-05-05 09:48 51°28.11 3°9.16 5.6 194 13.1 101200 87
2003-05-05 09:49 51°28.11 3°9.16 3.1 177 13.1 101200 87
2003-05-05 09:50 51°28.11 3°9.16 3.8 159 13.3 101210 88
2003-05-05 09:51 51°28.12 3°9.15 4 146 13.4 101210 87
2003-05-05 09:52 51°28.12 3°9.14 5.2 138 13.3 101210 86
2003-05-05 09:53 51°28.13 3°9.12 4.6 132 13.3 101200 86
2003-05-05 09:54 51°28.14 3°9.1 4.5 147 13.3 101200 86
2003-05-05 09:55 51°28.14 3°9.1 2.7 179 13.2 101200 86
2003-05-05 09:56 51°28.15 3°9.1 4.9 193 13.5 101200 87
2003-05-05 09:57 51°28.15 3°9.12 3.7 177 13.5 101200 86
2003-05-05 09:58 51°28.15 3°9.11 5.1 145 13.5 101200 86
2003-05-05 09:59 51°28.15 3°9.1 5.4 127 13.5 101200 85
2003-05-05 10:00 51°28.16 3°9.08 5.2 124 13.4 101200 85
2003-05-05 10:01 51°28.17 3°9.05 4.5 126 13.4 101200 85
2003-05-05 10:02 51°28.17 3°9.04 3.9 161 13.3 101200 85
2003-05-05 10:03 51°28.17 3°9.04 4.9 198 13.4 101200 85
2003-05-05 10:04 51°28.16 3°9.05 5.3 230 13.4 101190 85
2003-05-05 10:05 51°28.13 3°9.05 5.4 251 13.3 101200 85
2003-05-05 10:06 51°28.1 3°9.06 5.9 274 13.3 101190 85
2003-05-05 10:07 51°28.06 3°9.05 5.6 295 13.3 101200 85
2003-05-05 10:08 51°28.02 3°9.03 5.9 317 13.2 101210 85
2003-05-05 10:09 51°27.98 3°9.01 5.9 338 13.2 101200 85
2003-05-05 10:10 51°27.94 3°8.97 5.3 354 13.2 101200 85
2003-05-05 10:11 51°27.91 3°8.92 5.9 15 13.2 101200 85
2003-05-05 10:12 51°27.88 3°8.87 5.8 40 13.2 101200 86
2003-05-05 10:13 51°27.86 3°8.82 5 65 13.3 101200 86
2003-05-05 10:14 51°27.88 3°8.75 5.5 63 13.2 101200 85
2003-05-05 10:15 51°27.98 3°8.55 9.5 30 13.3 101200 85
2003-05-05 10:16 51°28.06 3°8.21 10.2 22 13.3 101190 85
2003-05-05 10:17 51°28.13 3°7.84 10.1 17 13.3 101190 85
2003-05-05 10:18 51°28.19 3°7.46 10.6 19 13.3 101190 85
2003-05-05 10:19 51°28.24 3°7.08 10.5 21 13.3 101190 85
2003-05-05 10:20 51°28.3 3°6.7 10.1 19 13.2 101190 85
2003-05-05 10:21 51°28.36 3°6.32 10.8 20 13.2 101190 85
2003-05-05 10:22 51°28.42 3°5.94 10.6 20 13.1 101200 85
2003-05-05 10:23 51°28.49 3°5.57 11 21 13.1 101190 85
2003-05-05 10:24 51°28.55 3°5.2 10.5 22 13.1 101190 85
2003-05-05 10:25 51°28.61 3°4.82 11.1 22 13.1 101190 85
2003-05-05 10:26 51°28.68 3°4.44 10.1 25 13.1 101190 85
2003-05-05 10:27 51°28.74 3°4.1 8.2 32 13.1 101190 85
2003-05-05 10:28 51°28.75 3°3.9 7 15 13.1 101210 85
2003-05-05 10:29 51°28.71 3°3.77 6.6 335 13.1 101210 86
2003-05-05 10:30 51°28.65 3°3.73 5 270 13 101200 85
2003-05-05 10:31 51°28.63 3°3.72 4.4 229 13 101210 86
2003-05-05 10:32 51°28.62 3°3.72 3.9 194 13 101200 86
2003-05-05 10:33 51°28.62 3°3.71 2 165 12.9 101200 86
2003-05-05 10:34 51°28.62 3°3.7 3.8 141 13 101210 87
2003-05-05 10:35 51°28.63 3°3.67 3.8 128 13 101210 86
2003-05-05 10:36 51°28.64 3°3.64 3.7 111 13 101210 86
2003-05-05 10:37 51°28.65 3°3.61 3.5 104 13 101210 86
2003-05-05 10:38 51°28.66 3°3.56 3.8 101 12.9 101210 86
2003-05-05 10:39 51°28.67 3°3.52 4.7 96 12.9 101210 86
2003-05-05 10:40 51°28.67 3°3.47 4.6 86 12.9 101210 87
2003-05-05 10:41 51°28.68 3°3.41 4.8 86 12.9 101210 87
2003-05-05 10:42 51°28.69 3°3.36 4.3 95 12.9 101210 87
2003-05-05 10:43 51°28.71 3°3.31 3.3 112 12.9 101220 87
2003-05-05 10:44 51°28.72 3°3.27 3.8 137 12.9 101210 87
2003-05-05 10:45 51°28.74 3°3.26 2.7 160 12.9 101220 87
2003-05-05 10:46 51°28.75 3°3.26 3.9 196 13 101220 87
2003-05-05 10:47 51°28.75 3°3.26 3.5 208 12.9 101210 87
2003-05-05 10:48 51°28.75 3°3.25 4.1 208 12.9 101210 87
2003-05-05 10:49 51°28.74 3°3.25 4 223 12.9 101210 87
2003-05-05 10:50 51°28.74 3°3.24 3.7 243 12.9 101210 87
2003-05-05 10:51 51°28.7 3°3.32 4.5 276 12.9 101210 87
2003-05-05 10:52 51°28.69 3°3.45 3.4 251 13 101210 87
2003-05-05 10:53 51°28.68 3°3.58 4 279 12.8 101210 87
2003-05-05 10:54 51°28.66 3°3.69 3.7 257 12.8 101210 87
2003-05-05 10:55 51°28.64 3°3.7 4.4 227 12.8 101210 88
2003-05-05 10:56 51°28.63 3°3.7 4.5 234 12.8 101220 88
2003-05-05 10:57 51°28.62 3°3.7 4.6 248 12.8 101220 88
2003-05-05 10:58 51°28.6 3°3.69 5.3 260 12.8 101220 88
2003-05-05 10:59 51°28.58 3°3.68 5 277 12.8 101220 88
2003-05-05 11:00 51°28.56 3°3.66 4.9 290 12.8 101220 88
2003-05-05 11:01 51°28.53 3°3.64 5.3 306 12.9 101220 88
2003-05-05 11:02 51°28.5 3°3.61 4.8 327 12.8 101210 88
2003-05-05 11:03 51°28.48 3°3.57 4.9 349 12.9 101210 88
2003-05-05 11:04 51°28.45 3°3.52 5.2 13 12.9 101210 88
2003-05-05 11:05 51°28.44 3°3.46 4.8 41 12.9 101210 88
2003-05-05 11:06 51°28.43 3°3.4 4.5 68 13 101210 88
2003-05-05 11:07 51°28.43 3°3.34 5.1 88 13 101220 88
2003-05-05 11:08 51°28.44 3°3.3 3.3 105 12.9 101210 87
2003-05-05 11:09 51°28.48 3°3.23 5.6 44 12.9 101220 87
2003-05-05 11:10 51°28.45 3°3.03 9.6 350 12.9 101210 87
2003-05-05 11:11 51°28.3 3°2.77 11.7 352 12.9 101200 87
2003-05-05 11:12 51°28.13 3°2.47 11.8 351 12.9 101200 87
2003-05-05 11:13 51°27.97 3°2.17 12.2 353 12.9 101200 87
2003-05-05 11:14 51°27.8 3°1.87 12 351 12.9 101210 87
2003-05-05 11:15 51°27.63 3°1.56 12.2 349 12.8 101200 87
2003-05-05 11:16 51°27.46 3°1.26 11.9 351 12.8 101200 87
2003-05-05 11:17 51°27.29 3°0.95 11.6 351 12.8 101200 87
2003-05-05 11:18 51°27.12 3°0.64 12 349 12.8 101210 87
2003-05-05 11:19 51°26.95 3°0.33 11.8 351 12.7 101200 87
2003-05-05 11:20 51°26.77 3°0.02 12.1 350 12.7 101210 88
2003-05-05 11:21 51°26.6 2°59.72 12.4 351 12.7 101200 88
2003-05-05 11:22 51°26.42 2°59.41 12.8 352 12.7 101200 88
2003-05-05 11:23 51°26.24 2°59.11 12.8 350 12.6 101200 88
2003-05-05 11:24 51°26.07 2°58.81 13 351 12.6 101210 88
2003-05-05 11:25 51°25.89 2°58.51 12.9 353 12.6 101210 88
2003-05-05 11:26 51°25.72 2°58.21 11.8 352 12.6 101220 88
2003-05-05 11:27 51°25.55 2°57.91 12.2 353 12.6 101210 88
2003-05-05 11:28 51°25.38 2°57.61 13.1 350 12.6 101230 88
2003-05-05 11:29 51°25.21 2°57.31 12 348 12.6 101220 87
2003-05-05 11:30 51°25.04 2°57.01 11.9 349 12.6 101220 87
2003-05-05 11:31 51°24.87 2°56.71 12 350 12.6 101220 87
2003-05-05 11:32 51°24.7 2°56.41 12.6 350 12.6 101210 87
2003-05-05 11:33 51°24.54 2°56.12 12.2 346 12.6 101220 87
2003-05-05 11:34 51°24.37 2°55.82 12.6 347 12.5 101210 86
2003-05-05 11:35 51°24.2 2°55.52 12.9 345 12.5 101220 86
2003-05-05 11:36 51°24.03 2°55.22 12.1 348 12.7 101210 86
2003-05-05 11:37 51°23.86 2°54.92 12.3 350 12.5 101210 86
2003-05-05 11:38 51°23.7 2°54.62 12.5 348 12.5 101210 86
2003-05-05 11:39 51°23.53 2°54.32 12.2 346 12.4 101220 86
2003-05-05 11:40 51°23.36 2°54.02 12.9 347 12.4 101210 85
2003-05-05 11:41 51°23.19 2°53.72 12.9 346 12.4 101210 85
2003-05-05 11:42 51°23.03 2°53.42 12.3 349 12.4 101220 85
2003-05-05 11:43 51°22.86 2°53.12 12.8 346 12.4 101230 85
2003-05-05 11:44 51°22.7 2°52.82 12.3 347 12.4 101220 85
2003-05-05 11:45 51°22.54 2°52.52 12.6 345 12.4 101220 85
2003-05-05 11:46 51°22.38 2°52.22 12.4 345 12.4 101210 85
2003-05-05 11:47 51°22.22 2°51.92 11.9 346 12.3 101220 85
2003-05-05 11:48 51°22.07 2°51.62 12.1 345 12.3 101230 85
2003-05-05 11:49 51°21.91 2°51.32 12.8 345 12.3 101220 85
2003-05-05 11:50 51°21.76 2°51.01 12.7 341 12.2 101220 85
2003-05-05 11:51 51°21.6 2°50.71 12 342 12.2 101220 85
2003-05-05 11:52 51°21.45 2°50.42 12.5 343 12.2 101220 86
2003-05-05 11:53 51°21.29 2°50.12 12.9 343 12.2 101220 86
2003-05-05 11:54 51°21.13 2°49.82 13.2 342 12.1 101210 86
2003-05-05 11:55 51°20.98 2°49.52 13.3 341 12.1 101220 86
2003-05-05 11:56 51°20.82 2°49.23 13.4 339 12.1 101220 86
2003-05-05 11:57 51°20.66 2°48.93 12.4 344 12.1 101210 86
2003-05-05 11:58 51°20.5 2°48.64 12.9 341 12.1 101220 86
2003-05-05 11:59 51°20.35 2°48.34 13.3 343 12 101210 86
2003-05-05 12:00 51°20.19 2°48.05 13.6 341 12 101220 86
2003-05-05 12:01 51°20.07 2°47.84 9.5 338 12 101220 86
2003-05-05 12:02 51°20 2°47.73 8.8 312 12 101230 86
2003-05-05 12:03 51°19.94 2°47.68 7.2 292 12 101250 86
2003-05-05 12:04 51°19.88 2°47.68 6.5 248 11.9 101250 87
2003-05-05 12:05 51°19.86 2°47.75 3.8 146 11.9 101250 87
2003-05-05 12:06 51°19.88 2°47.8 6.4 117 11.9 101250 87
2003-05-05 12:07 51°19.9 2°47.81 5.6 100 11.9 101250 87
2003-05-05 12:08 51°19.92 2°47.8 5.9 76 11.9 101250 87
2003-05-05 12:09 51°19.93 2°47.78 6.4 67 11.9 101250 87
2003-05-05 12:10 51°19.94 2°47.75 6.1 53 11.9 101240 87
2003-05-05 12:11 51°19.94 2°47.72 6.2 39 11.9 101250 87
2003-05-05 12:12 51°19.94 2°47.7 6.7 30 11.9 101240 87
2003-05-05 12:13 51°19.94 2°47.67 6.2 21 11.9 101240 87
2003-05-05 12:14 51°19.94 2°47.64 5.4 16 11.9 101250 87
2003-05-05 12:15 51°19.93 2°47.62 6.6 357 11.9 101250 87
2003-05-05 12:16 51°19.92 2°47.6 6.1 350 11.9 101250 87
2003-05-05 12:17 51°19.91 2°47.58 6.2 313 11.9 101250 87
2003-05-05 12:18 51°19.89 2°47.57 5.3 288 11.8 101260 87
2003-05-05 12:19 51°19.88 2°47.57 6 260 11.8 101260 88
2003-05-05 12:20 51°19.86 2°47.58 6.6 243 11.8 101260 88
2003-05-05 12:21 51°19.84 2°47.59 6.4 238 11.8 101260 88
2003-05-05 12:22 51°19.82 2°47.61 5.4 224 11.8 101260 88
2003-05-05 12:23 51°19.81 2°47.64 5.8 211 11.7 101260 88
2003-05-05 12:24 51°19.8 2°47.67 5 192 11.7 101260 88
2003-05-05 12:25 51°19.8 2°47.7 3.3 168 11.7 101260 88
2003-05-05 12:26 51°19.81 2°47.73 5 131 11.8 101250 88
2003-05-05 12:27 51°19.82 2°47.74 5.6 118 11.8 101240 88
2003-05-05 12:28 51°19.83 2°47.75 5.9 97 11.8 101240 88
2003-05-05 12:29 51°19.84 2°47.74 6.3 82 11.8 101250 88
2003-05-05 12:30 51°19.86 2°47.73 6.1 63 11.8 101240 88
2003-05-05 12:31 51°19.86 2°47.72 6.9 49 11.8 101250 88
2003-05-05 12:32 51°19.87 2°47.7 6.8 45 11.8 101240 88
2003-05-05 12:33 51°19.88 2°47.69 6.8 316 11.9 101250 89
2003-05-05 12:34 51°19.89 2°47.67 7 55 11.9 101250 88
2003-05-05 12:35 51°19.9 2°47.65 6.7 61 11.9 101250 88
2003-05-05 12:36 51°19.91 2°47.64 7.1 68 11.9 101250 88
2003-05-05 12:37 51°19.93 2°47.63 5.8 75 11.9 101250 88
2003-05-05 12:38 51°19.94 2°47.62 7 77 11.9 101250 88
2003-05-05 12:39 51°19.96 2°47.61 6.2 86 11.8 101240 88
2003-05-05 12:40 51°19.99 2°47.61 6 95 11.8 101240 88
2003-05-05 12:41 51°20.02 2°47.61 6.4 68 11.8 101240 88
2003-05-05 12:42 51°20.1 2°47.49 12 11 11.8 101230 88
2003-05-05 12:43 51°20.04 2°47.2 12.7 343 11.8 101220 88
2003-05-05 12:44 51°19.9 2°46.93 13.3 342 11.8 101210 88
2003-05-05 12:45 51°19.75 2°46.66 13.3 343 11.8 101210 88
2003-05-05 12:46 51°19.61 2°46.39 13.2 344 11.7 101210 88
2003-05-05 12:47 51°19.48 2°46.12 12.6 343 11.7 101210 89
2003-05-05 12:48 51°19.34 2°45.85 12.5 344 11.7 101210 89
2003-05-05 12:49 51°19.2 2°45.58 13 344 11.7 101210 89
2003-05-05 12:50 51°19.06 2°45.32 12.4 345 11.6 101210 89
2003-05-05 12:51 51°18.93 2°45.06 12.2 345 11.6 101220 89
2003-05-05 12:52 51°18.79 2°44.8 12.5 345 11.6 101220 89
2003-05-05 12:53 51°18.65 2°44.53 11.8 345 11.6 101220 89
2003-05-05 12:54 51°18.52 2°44.27 12.1 348 11.6 101220 89
2003-05-05 12:55 51°18.39 2°44 12.6 347 11.6 101220 89
2003-05-05 12:56 51°18.26 2°43.72 12.5 347 11.6 101210 89
2003-05-05 12:57 51°18.14 2°43.44 12.2 347 11.5 101210 90
2003-05-05 12:58 51°18.01 2°43.16 12.5 346 11.5 101220 90
2003-05-05 12:59 51°17.89 2°42.88 12.8 345 11.5 101210 90
2003-05-05 13:00 51°17.76 2°42.6 13.3 347 11.5 101210 90
2003-05-05 13:01 51°17.65 2°42.32 13.3 344 11.5 101220 90
2003-05-05 13:02 51°17.53 2°42.03 12.7 347 11.5 101210 90
2003-05-05 13:03 51°17.41 2°41.74 13.1 346 11.5 101210 90
2003-05-05 13:04 51°17.32 2°41.55 9 340 11.5 101230 90
2003-05-05 13:05 51°17.3 2°41.43 9 347 11.4 101240 90
2003-05-05 13:06 51°17.28 2°41.32 7.6 356 11.4 101230 90
2003-05-05 13:07 51°17.28 2°41.31 4.9 7 11.4 101240 90
2003-05-05 13:09 51°17.28 2°41.33 5.4 23 11.4 101240 90
2003-05-05 13:10 51°17.29 2°41.34 5.5 41 11.4 101230 90
2003-05-05 13:10 51°17.3 2°41.36 5.2 49 11.4 101230 90
2003-05-05 13:11 51°17.31 2°41.37 5.5 58 11.5 101240 90
2003-05-05 13:12 51°17.33 2°41.38 5.6 47 11.5 101240 90
2003-05-05 13:13 51°17.35 2°41.38 5.5 35 11.5 101240 90
2003-05-05 13:14 51°17.37 2°41.38 6.3 21 11.5 101240 90
2003-05-05 13:15 51°17.38 2°41.37 6 11 11.5 101240 90
2003-05-05 13:16 51°17.39 2°41.36 6 1 11.5 101240 90
2003-05-05 13:17 51°17.39 2°41.36 5.5 343 11.4 101240 90
2003-05-05 13:18 51°17.39 2°41.36 5.9 323 11.4 101240 90
2003-05-05 13:19 51°17.38 2°41.37 5.5 298 11.4 101240 90
2003-05-05 13:20 51°17.36 2°41.4 5.7 276 11.3 101250 90
2003-05-05 13:21 51°17.35 2°41.43 5.3 279 11.3 101260 90
2003-05-05 13:22 51°17.35 2°41.46 5.2 278 11.3 101250 90
2003-05-05 13:23 51°17.34 2°41.5 4.9 280 11.3 101250 90
2003-05-05 13:24 51°17.34 2°41.53 4.8 291 11.3 101260 90
2003-05-05 13:25 51°17.34 2°41.56 5 288 11.3 101250 90
2003-05-05 13:26 51°17.34 2°41.59 4.6 296 11.3 101260 90
2003-05-05 13:27 51°17.34 2°41.62 4.3 296 11.3 101250 90
2003-05-05 13:28 51°17.34 2°41.65 4.4 301 11.3 101250 90
2003-05-05 13:29 51°17.35 2°41.68 4.4 302 11.3 101250 90
2003-05-05 13:30 51°17.35 2°41.71 4.1 322 11.3 101240 90
2003-05-05 13:31 51°17.33 2°41.71 4.6 340 11.3 101240 90
2003-05-05 13:32 51°17.32 2°41.7 4.6 7 11.3 101240 90
2003-05-05 13:33 51°17.32 2°41.66 4.7 24 11.3 101240 90
2003-05-05 13:34 51°17.34 2°41.61 4.6 43 11.3 101230 90
2003-05-05 13:35 51°17.38 2°41.58 4.5 46 11.3 101230 90
2003-05-05 13:36 51°17.42 2°41.56 3.9 54 11.3 101230 90
2003-05-05 13:37 51°17.45 2°41.54 4.1 50 11.3 101240 90
2003-05-05 13:38 51°17.48 2°41.52 5.2 317 11.4 101230 90
2003-05-05 13:39 51°17.51 2°41.5 5.6 43 11.4 101240 90
2003-05-05 13:40 51°17.54 2°41.48 5.3 54 11.4 101240 90
2003-05-05 13:41 51°17.57 2°41.47 5.9 50 11.4 101240 90
2003-05-05 13:42 51°17.59 2°41.4 7.5 342 11.4 101240 90
2003-05-05 13:43 51°17.51 2°41.38 8.9 331 11.3 101240 89
2003-05-05 13:44 51°17.36 2°41.34 10.8 337 11.3 101230 89
2003-05-05 13:45 51°17.17 2°41.27 10.9 341 11.3 101220 89
2003-05-05 13:46 51°16.96 2°41.18 11.1 340 11.3 101220 89
2003-05-05 13:47 51°16.76 2°41.1 11.1 338 11.3 101220 89
2003-05-05 13:48 51°16.56 2°41.02 10.7 342 11.3 101230 89
2003-05-05 13:49 51°16.35 2°40.93 10.6 343 11.3 101220 89
2003-05-05 13:50 51°16.15 2°40.85 10.4 341 11.3 101220 89
2003-05-05 13:51 51°15.94 2°40.76 10.1 342 11.3 101220 90
2003-05-05 13:52 51°15.74 2°40.66 10.7 341 11.3 101220 90
2003-05-05 13:53 51°15.53 2°40.6 10.1 338 11.3 101220 90
2003-05-05 13:54 51°15.31 2°40.62 9.5 333 11.3 101220 90
2003-05-05 13:55 51°15.1 2°40.7 9.6 338 11.3 101230 90
2003-05-05 13:56 51°14.88 2°40.77 9.6 336 11.3 101220 90
2003-05-05 13:57 51°14.66 2°40.85 9.6 336 11.3 101220 90
2003-05-05 13:58 51°14.44 2°40.93 8.5 334 11.3 101210 89
2003-05-05 13:59 51°14.29 2°41.02 6.2 322 11.3 101220 89
2003-05-05 14:00 51°14.18 2°41.04 5.3 346 11.3 101230 89
2003-05-05 14:01 51°14.17 2°41.05 3.2 33 11.4 101240 89
2003-05-05 14:02 51°14.18 2°41.07 3 45 11.4 101240 89
2003-05-05 14:03 51°14.19 2°41.09 2.9 57 11.5 101240 89
2003-05-05 14:04 51°14.21 2°41.12 2.7 61 11.5 101240 89
2003-05-05 14:05 51°14.23 2°41.15 2.7 55 11.5 101240 89
2003-05-05 14:06 51°14.25 2°41.16 3.3 42 11.5 101240 89
2003-05-05 14:07 51°14.27 2°41.16 3.4 31 11.6 101240 89
2003-05-05 14:08 51°14.28 2°41.15 3.5 14 11.6 101240 89
2003-05-05 14:09 51°14.29 2°41.14 3.6 8 11.6 101240 89
2003-05-05 14:10 51°14.29 2°41.13 3.8 352 11.6 101240 88
2003-05-05 14:11 51°14.27 2°41.13 3.9 339 11.5 101250 88
2003-05-05 14:12 51°14.25 2°41.13 4 336 11.5 101240 88
2003-05-05 14:13 51°14.23 2°41.14 4.3 352 11.5 101250 88
2003-05-05 14:14 51°14.22 2°41.13 4.5 347 11.5 101250 88
2003-05-05 14:15 51°14.2 2°41.12 4.5 342 11.5 101250 88
2003-05-05 14:16 51°14.19 2°41.12 4 342 11.5 101250 88
2003-05-05 14:17 51°14.17 2°41.11 4.4 331 11.5 101260 88
2003-05-05 14:18 51°14.15 2°41.11 4.6 331 11.5 101250 88
2003-05-05 14:19 51°14.12 2°41.12 4.8 322 11.4 101250 88
2003-05-05 14:20 51°14.1 2°41.13 5 318 11.4 101250 88
2003-05-05 14:21 51°14.09 2°41.15 4.5 316 11.4 101260 88
2003-05-05 14:22 51°14.07 2°41.17 4.9 314 11.4 101260 88
2003-05-05 14:23 51°14.07 2°41.2 4.2 312 11.4 101260 88
2003-05-05 14:24 51°14.06 2°41.23 4.4 317 11.4 101260 88
2003-05-05 14:25 51°14.05 2°41.26 4.2 301 11.4 101260 88
2003-05-05 14:26 51°14.04 2°41.3 4.3 277 11.4 101260 88
2003-05-05 14:27 51°14.03 2°41.36 4.2 273 11.4 101260 88
2003-05-05 14:28 51°14.01 2°41.42 3.9 286 11.4 101260 87
2003-05-05 14:29 51°13.99 2°41.46 4.2 308 11.4 101250 87
2003-05-05 14:30 51°13.98 2°41.49 4.3 334 11.5 101260 87
2003-05-05 14:31 51°13.97 2°41.5 4.6 356 11.5 101260 88
2003-05-05 14:32 51°13.97 2°41.5 4.5 21 11.5 101260 88
2003-05-05 14:33 51°14.02 2°41.47 4 67 11.5 101260 88
2003-05-05 14:34 51°14.12 2°41.54 1.8 82 11.6 101260 87
2003-05-05 14:35 51°14.24 2°41.76 2.3 341 11.6 101270 87
2003-05-05 14:36 51°14.31 2°42.08 2.9 327 11.6 101260 87
2003-05-05 14:37 51°14.38 2°42.46 3.8 338 11.6 101260 87
2003-05-05 14:38 51°14.46 2°42.85 4.2 339 11.6 101260 87
2003-05-05 14:39 51°14.53 2°43.24 4.6 344 11.6 101260 87
2003-05-05 14:40 51°14.6 2°43.63 4.9 343 11.7 101260 87
2003-05-05 14:41 51°14.66 2°44.03 4.9 344 11.7 101260 87
2003-05-05 14:42 51°14.73 2°44.42 4.7 344 11.7 101260 88
2003-05-05 14:43 51°14.77 2°44.82 4.8 344 11.7 101260 88
2003-05-05 14:44 51°14.82 2°45.22 5 343 11.7 101260 88
2003-05-05 14:45 51°14.87 2°45.62 4.6 340 11.7 101260 88
2003-05-05 14:46 51°14.92 2°46.02 4.2 336 11.7 101260 88
2003-05-05 14:47 51°14.96 2°46.41 4.1 338 11.7 101260 88
2003-05-05 14:48 51°15.01 2°46.8 4 339 11.7 101260 88
2003-05-05 14:49 51°15.05 2°47.18 3.9 338 11.7 101260 88
2003-05-05 14:50 51°15.09 2°47.57 4 338 11.7 101270 88
2003-05-05 14:51 51°15.14 2°47.96 3.7 337 11.8 101260 88
2003-05-05 14:52 51°15.18 2°48.36 3.6 344 11.8 101270 88
2003-05-05 14:53 51°15.23 2°48.75 3.6 340 11.8 101270 88
2003-05-05 14:54 51°15.27 2°49.14 3.7 342 11.8 101270 87
2003-05-05 14:55 51°15.32 2°49.54 3.5 345 11.8 101270 87
2003-05-05 14:56 51°15.37 2°49.93 3.6 345 11.8 101270 87
2003-05-05 14:57 51°15.41 2°50.33 3.5 339 11.9 101280 87
2003-05-05 14:58 51°15.43 2°50.72 4.1 342 11.9 101270 87
2003-05-05 14:59 51°15.46 2°51.12 4.4 332 11.9 101280 87
2003-05-05 15:00 51°15.41 2°51.5 5.1 327 11.9 101280 86
2003-05-05 15:01 51°15.35 2°51.88 5.9 322 11.9 101280 86
2003-05-05 15:02 51°15.25 2°52.22 6.5 323 11.9 101280 86
2003-05-05 15:03 51°15.13 2°52.56 6.3 321 12 101280 85
2003-05-05 15:04 51°15.02 2°52.89 6.2 320 11.9 101280 85
2003-05-05 15:05 51°14.92 2°53.22 5.1 318 12 101280 85
2003-05-05 15:06 51°14.85 2°53.54 4.8 317 12 101280 85
2003-05-05 15:07 51°14.77 2°53.86 6 325 12 101290 85
2003-05-05 15:08 51°14.69 2°54.18 6.5 330 12 101290 85
2003-05-05 15:09 51°14.6 2°54.5 6.8 331 12 101290 86
2003-05-05 15:10 51°14.49 2°54.8 6.7 331 12 101280 86
2003-05-05 15:11 51°14.37 2°55.07 6.6 329 12.1 101290 86
2003-05-05 15:12 51°14.26 2°55.27 3.6 315 12.1 101290 87